Hauptseite
METAR-TAF:

METAR-TAF

Flughäfen :

Diepholz, Deutschland

Fliegerhorst Diepholz

Breite: 52-35N, Länge: 008-21E, Höhe: 39 m

Beobachtung

Neuester Wetterbericht von vor 30 Minuten, um 06:20 UTC
Wind 3 kt aus Süd/Südwest
Temperatur 13°C
Luftfeuchtigkeit 88%
Luftdruck 1008 hPa
Sichtweite 10 km oder mehr
Leicht bewölkt in der Höhe von 3000 ft
Durchbrochene Bewölkung in der Höhe von 11000 ft

METAR: ETND 200620Z 20003KT 9999 FEW030 BKN110 13/11 Q1008 BLU

Zeit: 08:50 (06:50 UTC)


TAF: fehlend

Wetterbeobachtungen und Prognosen von mehr als 4000 Flughäfen (METAR und TAF Bericht).

Die verfügbaren Stationen werden durch gelbe und rote Markierungen auf der Karte dargestellt.

Führen Sie die Maus auf sie, um den Namen der Station zu sehen.

Darauf klicken, um die Beobachtung von Wetterbeobachtungen und Prognosen zu sehen.

Um die Karte zu ändern : klicken Sie auf den grünen Tasten mit einem schwarzen Kreuz Zum Vergrößern, auf den grünen Button mit einem Gedankenstrich zu verkleinern, oder auf die grünen Pfeile für benachbarte Karten.


METAR-TAF: